| time (UTC) | temp F | wind direction | speed MPH | gust MPH | rain 1hr in | rain 24hr in | rain mn in | humidity % | barometer mb |
| 20260905231043 | 70 | 265 | 3.0 | 10.0 | 0.00 | 0.00 | 0.00 | 55 | 1021.9 |
| 20260905230038 | 70 | 283 | 3.0 | 5.0 | 0.00 | 0.00 | 0.00 | 56 | 1021.8 |
| 20260905225023 | 70 | 308 | 2.0 | 5.0 | 0.00 | 0.00 | 0.00 | 55 | 1021.7 |
| 20260905224024 | 70 | 281 | 4.0 | 7.0 | 0.00 | 0.00 | 0.00 | 55 | 1021.8 |
| 20260905223051 | 69 | 267 | 3.0 | 8.0 | 0.00 | 0.00 | 0.00 | 56 | 1021.9 |
| 20260905222022 | 69 | 22 | 1.0 | 4.0 | 0.00 | 0.00 | 0.00 | 55 | 1021.7 |
| 20260905221050 | 68 | 41 | 1.0 | 3.0 | 0.00 | 0.00 | 0.00 | 56 | 1021.8 |
| 20260905220022 | 68 | 345 | 0.0 | 1.0 | 0.00 | 0.00 | 0.00 | 56 | 1021.7 |
| 20260905215110 | 68 | 338 | 0.0 | 1.0 | 0.00 | 0.00 | 0.00 | 56 | 1021.7 |
| 20260905214019 | 68 | 263 | 1.0 | 4.0 | 0.00 | 0.00 | 0.00 | 56 | 1021.6 |
| 20260905213039 | 67 | 263 | 0.0 | 3.0 | 0.00 | 0.00 | 0.00 | 57 | 1021.5 |
| 20260905212120 | 68 | 270 | 0.0 | 1.0 | 0.00 | 0.00 | 0.00 | 57 | 1021.5 |
| 20260905211038 | 69 | 261 | 1.0 | 4.0 | 0.00 | 0.00 | 0.00 | 56 | 1021.4 |
| 20260905210048 | 70 | 293 | 0.0 | 1.0 | 0.00 | 0.00 | 0.00 | 54 | 1021.3 |
| 20260905205147 | 70 | 315 | 0.0 | 1.0 | 0.00 | 0.00 | 0.00 | 54 | 1021.5 |
| 20260905204048 | 71 | 301 | 1.0 | 3.0 | 0.00 | 0.00 | 0.00 | 53 | 1021.3 |
| 20260905203127 | 71 | 281 | 1.0 | 4.0 | 0.00 | 0.00 | 0.00 | 53 | 1021.3 |
| 20260905202046 | 71 | 302 | 3.0 | 5.0 | 0.00 | 0.00 | 0.00 | 53 | 1021.3 |
| 20260905201046 | 71 | 294 | 3.0 | 7.0 | 0.00 | 0.00 | 0.00 | 54 | 1021.1 |
| 20260905200046 | 70 | 341 | 2.0 | 5.0 | 0.00 | 0.00 | 0.00 | 55 | 1021.0 |
| 20260905195015 | 70 | 12 | 1.0 | 3.0 | 0.00 | 0.00 | 0.00 | 56 | 1020.7 |
| 20260905194045 | 70 | 326 | 1.0 | 4.0 | 0.00 | 0.00 | 0.00 | 56 | 1020.6 |
| 20260905193045 | 71 | 248 | 0.0 | 4.0 | 0.00 | 0.00 | 0.00 | 55 | 1020.5 |
| 20260905192045 | 71 | 278 | 2.0 | 4.0 | 0.00 | 0.00 | 0.00 | 56 | 1020.4 |
| 20260905191044 | 71 | 305 | 1.0 | 4.0 | 0.00 | 0.00 | 0.00 | 55 | 1020.4 |
| 20260905190043 | 71 | 301 | 1.0 | 4.0 | 0.00 | 0.00 | 0.00 | 55 | 1020.3 |
| 20260905185043 | 71 | 291 | 2.0 | 4.0 | 0.00 | 0.00 | 0.00 | 54 | 1020.2 |
| 20260905184042 | 71 | 290 | 0.0 | 3.0 | 0.00 | 0.00 | 0.00 | 53 | 1020.2 |
| 20260905183112 | 71 | 300 | 1.0 | 3.0 | 0.00 | 0.00 | 0.00 | 54 | 1020.0 |
| 20260905182042 | 71 | 309 | 1.0 | 4.0 | 0.00 | 0.00 | 0.00 | 54 | 1019.9 |
| 20260905181041 | 71 | 0.0 | 0.0 | 0.00 | 0.00 | 0.00 | 52 | 1019.8 | |
| 20260905180051 | 72 | 0.0 | 0.0 | 0.00 | 0.00 | 0.00 | 51 | 1019.7 | |
| 20260905175040 | 72 | 0 | 0.0 | 1.0 | 0.00 | 0.00 | 0.00 | 51 | 1019.5 |
| 20260905174040 | 73 | 342 | 0.0 | 3.0 | 0.00 | 0.00 | 0.00 | 50 | 1019.4 |
| 20260905173039 | 73 | 345 | 2.0 | 4.0 | 0.00 | 0.00 | 0.00 | 49 | 1019.2 |
| 20260905172039 | 74 | 349 | 1.0 | 5.0 | 0.00 | 0.00 | 0.00 | 49 | 1019.2 |
| 20260905171039 | 74 | 294 | 1.0 | 5.0 | 0.00 | 0.00 | 0.00 | 48 | 1019.2 |
| 20260905170039 | 75 | 289 | 2.0 | 4.0 | 0.00 | 0.00 | 0.00 | 47 | 1019.1 |
| 20260905165038 | 75 | 329 | 2.0 | 5.0 | 0.00 | 0.00 | 0.00 | 46 | 1019.0 |
| 20260905164129 | 75 | 301 | 2.0 | 7.0 | 0.00 | 0.00 | 0.00 | 46 | 1019.0 |
| 20260905163038 | 75 | 298 | 5.0 | 10.0 | 0.00 | 0.00 | 0.00 | 46 | 1019.0 |
| 20260905162037 | 76 | 299 | 4.0 | 8.0 | 0.00 | 0.00 | 0.00 | 45 | 1019.0 |
| 20260905161037 | 76 | 299 | 4.0 | 8.0 | 0.00 | 0.00 | 0.00 | 45 | 1019.1 |
| 20260905160037 | 75 | 304 | 3.0 | 7.0 | 0.00 | 0.00 | 0.00 | 45 | 1019.0 |
| 20260905155036 | 75 | 310 | 4.0 | 10.0 | 0.00 | 0.00 | 0.00 | 44 | 1019.0 |
| 20260905154036 | 76 | 269 | 3.0 | 7.0 | 0.00 | 0.00 | 0.00 | 43 | 1018.9 |
| 20260905153035 | 76 | 304 | 5.0 | 11.0 | 0.00 | 0.00 | 0.00 | 43 | 1018.9 |
| 20260905152056 | 76 | 315 | 3.0 | 8.0 | 0.00 | 0.00 | 0.00 | 42 | 1019.0 |
| 20260905151034 | 76 | 304 | 4.0 | 10.0 | 0.00 | 0.00 | 0.00 | 41 | 1019.0 |
| 20260905150034 | 75 | 289 | 6.0 | 14.0 | 0.00 | 0.00 | 0.00 | 42 | 1018.9 |
| 20260905145033 | 75 | 276 | 4.0 | 10.0 | 0.00 | 0.00 | 0.00 | 42 | 1018.8 |
| 20260905144033 | 76 | 293 | 5.0 | 12.0 | 0.00 | 0.00 | 0.00 | 41 | 1018.9 |
| 20260905143033 | 76 | 319 | 5.0 | 10.0 | 0.00 | 0.00 | 0.00 | 41 | 1018.8 |
| 20260905142032 | 76 | 338 | 7.0 | 11.0 | 0.00 | 0.00 | 0.00 | 41 | 1018.8 |
| 20260905141031 | 78 | 343 | 7.0 | 16.0 | 0.00 | 0.00 | 0.00 | 39 | 1018.8 |
| 20260905140031 | 77 | 310 | 5.0 | 11.0 | 0.00 | 0.00 | 0.00 | 39 | 1018.8 |
| 20260905135030 | 78 | 318 | 6.0 | 14.0 | 0.00 | 0.00 | 0.00 | 38 | 1018.6 |
| 20260905134050 | 78 | 2 | 5.0 | 12.0 | 0.00 | 0.00 | 0.00 | 37 | 1018.6 |
| 20260905133059 | 78 | 332 | 6.0 | 12.0 | 0.00 | 0.00 | 0.00 | 38 | 1018.6 |
| 20260905132050 | 77 | 325 | 4.0 | 10.0 | 0.00 | 0.00 | 0.00 | 39 | 1018.6 |
| 20260905131029 | 77 | 317 | 4.0 | 10.0 | 0.00 | 0.00 | 0.00 | 40 | 1018.5 |
| 20260905130028 | 77 | 357 | 6.0 | 16.0 | 0.00 | 0.00 | 0.00 | 39 | 1018.5 |
| 20260905125027 | 76 | 311 | 4.0 | 10.0 | 0.00 | 0.00 | 0.00 | 41 | 1018.7 |
| 20260905124028 | 76 | 314 | 5.0 | 14.0 | 0.00 | 0.00 | 0.00 | 40 | 1018.7 |
| 20260905123028 | 76 | 323 | 6.0 | 15.0 | 0.00 | 0.00 | 0.00 | 43 | 1018.9 |
| 20260905122057 | 76 | 3 | 4.0 | 11.0 | 0.00 | 0.00 | 0.00 | 44 | 1019.0 |
| 20260905121027 | 75 | 328 | 6.0 | 15.0 | 0.00 | 0.00 | 0.00 | 44 | 1019.0 |
| 20260905120028 | 73 | 335 | 5.0 | 11.0 | 0.00 | 0.00 | 0.00 | 50 | 1018.9 |
| 20260905115026 | 71 | 309 | 5.0 | 12.0 | 0.00 | 0.00 | 0.00 | 55 | 1018.9 |
| 20260905114025 | 69 | 284 | 2.0 | 7.0 | 0.00 | 0.00 | 0.00 | 61 | 1019.1 |
| 20260905113044 | 68 | 240 | 2.0 | 4.0 | 0.00 | 0.00 | 0.00 | 64 | 1019.4 |
| 20260905112054 | 67 | 315 | 2.0 | 8.0 | 0.00 | 0.00 | 0.00 | 62 | 1019.1 |
| 20260905111024 | 70 | 332 | 6.0 | 11.0 | 0.00 | 0.00 | 0.00 | 54 | 1019.2 |
| 20260905110024 | 72 | 293 | 5.0 | 12.0 | 0.00 | 0.00 | 0.00 | 46 | 1019.0 |
| 20260905105043 | 74 | 317 | 5.0 | 8.0 | 0.00 | 0.00 | 0.00 | 43 | 1018.8 |
| 20260905104023 | 75 | 347 | 4.0 | 12.0 | 0.00 | 0.00 | 0.00 | 41 | 1018.5 |
| 20260905103052 | 75 | 325 | 6.0 | 11.0 | 0.00 | 0.00 | 0.00 | 41 | 1018.5 |
| 20260905102052 | 75 | 327 | 4.0 | 14.0 | 0.00 | 0.00 | 0.00 | 41 | 1018.8 |
| 20260905101021 | 76 | 343 | 5.0 | 14.0 | 0.00 | 0.00 | 0.00 | 40 | 1018.8 |
| 20260905100021 | 76 | 333 | 4.0 | 11.0 | 0.00 | 0.00 | 0.00 | 41 | 1018.8 |
| 20260905095021 | 76 | 333 | 5.0 | 15.0 | 0.00 | 0.00 | 0.00 | 42 | 1019.0 |
| 20260905094021 | 76 | 321 | 5.0 | 12.0 | 0.00 | 0.00 | 0.00 | 43 | 1018.9 |
| 20260905093050 | 75 | 326 | 4.0 | 10.0 | 0.00 | 0.00 | 0.00 | 44 | 1019.0 |
| 20260905092041 | 76 | 350 | 7.0 | 14.0 | 0.00 | 0.00 | 0.00 | 43 | 1019.1 |
| 20260905091049 | 77 | 308 | 6.0 | 18.0 | 0.00 | 0.00 | 0.00 | 43 | 1019.2 |
| 20260905090020 | 77 | 342 | 9.0 | 15.0 | 0.00 | 0.00 | 0.00 | 43 | 1019.0 |
| 20260905085018 | 77 | 354 | 4.0 | 14.0 | 0.00 | 0.00 | 0.00 | 46 | 1018.9 |
| 20260905084049 | 75 | 17 | 6.0 | 14.0 | 0.00 | 0.00 | 0.00 | 50 | 1018.8 |
| 20260905083048 | 75 | 15 | 4.0 | 14.0 | 0.00 | 0.00 | 0.00 | 54 | 1018.7 |
| 20260905082048 | 76 | 358 | 8.0 | 18.0 | 0.00 | 0.00 | 0.00 | 50 | 1018.6 |
| 20260905081107 | 76 | 352 | 5.0 | 12.0 | 0.00 | 0.00 | 0.00 | 51 | 1018.2 |
| 20260905080047 | 75 | 346 | 6.0 | 11.0 | 0.00 | 0.00 | 0.00 | 53 | 1017.9 |
| 20260905075016 | 75 | 308 | 5.0 | 12.0 | 0.00 | 0.00 | 0.00 | 54 | 1017.4 |
| 20260905074047 | 75 | 321 | 6.0 | 12.0 | 0.00 | 0.00 | 0.00 | 54 | 1017.2 |
| 20260905073045 | 75 | 336 | 8.0 | 18.0 | 0.00 | 0.00 | 0.00 | 53 | 1016.6 |
| 20260905072106 | 76 | 317 | 9.0 | 19.0 | 0.00 | 0.00 | 0.00 | 53 | 1016.5 |
| 20260905071045 | 78 | 337 | 9.0 | 21.0 | 0.00 | 0.00 | 0.00 | 51 | 1015.9 |
| 20260905070045 | 79 | 330 | 7.0 | 18.0 | 0.00 | 0.00 | 0.00 | 49 | 1015.5 |
| 20260905065044 | 79 | 324 | 7.0 | 16.0 | 0.00 | 0.00 | 0.00 | 49 | 1015.2 |
| 20260905064044 | 79 | 315 | 5.0 | 11.0 | 0.00 | 0.00 | 0.00 | 48 | 1015.1 |
| 20260905063043 | 77 | 288 | 2.0 | 12.0 | 0.00 | 0.00 | 0.00 | 52 | 1014.9 |
| 20260905062103 | 74 | 209 | 1.0 | 4.0 | 0.00 | 0.00 | 0.00 | 57 | 1014.8 |
| 20260905061043 | 74 | 235 | 1.0 | 3.0 | 0.00 | 0.00 | 0.00 | 58 | 1014.7 |
| 20260905060113 | 74 | 248 | 0.0 | 1.0 | 0.00 | 0.00 | 0.00 | 57 | 1014.6 |
| 20260905055042 | 73 | 222 | 0.0 | 3.0 | 0.00 | 0.00 | 0.00 | 59 | 1014.5 |
| 20260905054042 | 71 | 234 | 1.0 | 3.0 | 0.00 | 0.00 | 0.00 | 61 | 1014.5 |
| 20260905053041 | 71 | 207 | 1.0 | 4.0 | 0.00 | 0.00 | 0.00 | 61 | 1014.3 |
| 20260905052041 | 70 | 191 | 0.0 | 1.0 | 0.00 | 0.00 | 0.00 | 62 | 1014.2 |
| 20260905051040 | 70 | 125 | 1.0 | 3.0 | 0.00 | 0.00 | 0.00 | 63 | 1014.0 |
| 20260905050110 | 69 | 0.0 | 0.0 | 0.00 | 0.00 | 0.00 | 63 | 1014.2 | |
| 20260905045039 | 69 | 208 | 0.0 | 1.0 | 0.00 | 0.00 | 0.00 | 64 | 1013.8 |
| 20260905044040 | 69 | 128 | 1.0 | 3.0 | 0.00 | 0.00 | 0.00 | 63 | 1013.9 |
| 20260905043038 | 69 | 181 | 0.0 | 1.0 | 0.00 | 0.00 | 0.00 | 62 | 1013.8 |
| 20260905042038 | 69 | 0.0 | 0.0 | 0.00 | 0.00 | 0.00 | 61 | 1013.7 | |
| 20260905041038 | 70 | 0.0 | 0.0 | 0.00 | 0.00 | 0.00 | 60 | 1013.6 | |
| 20260905040107 | 70 | 0.0 | 0.0 | 0.00 | 0.00 | 0.00 | 60 | 1013.5 | |
| 20260905035037 | 70 | 85 | 2.0 | 4.0 | 0.00 | 0.00 | 0.00 | 59 | 1013.5 |
| 20260905034040 | 71 | 71 | 1.0 | 4.0 | 0.00 | 0.00 | 0.00 | 58 | 1013.2 |
| 20260905033042 | 72 | 137 | 0.0 | 3.0 | 0.00 | 0.00 | 0.00 | 57 | 1013.2 |
| 20260905032037 | 72 | 127 | 1.0 | 3.0 | 0.00 | 0.00 | 0.00 | 58 | 1013.3 |
| 20260905031037 | 72 | 122 | 1.0 | 3.0 | 0.00 | 0.00 | 0.00 | 57 | 1013.3 |
| 20260905030035 | 72 | 133 | 2.0 | 4.0 | 0.00 | 0.00 | 0.00 | 57 | 1013.2 |
| 20260905025035 | 71 | 103 | 1.0 | 3.0 | 0.00 | 0.00 | 0.00 | 57 | 1013.3 |
| 20260905024055 | 71 | 86 | 1.0 | 3.0 | 0.00 | 0.00 | 0.00 | 57 | 1013.3 |
| 20260905023034 | 72 | 177 | 0.0 | 3.0 | 0.00 | 0.00 | 0.00 | 57 | 1013.4 |
| 20260905022034 | 71 | 67 | 1.0 | 4.0 | 0.00 | 0.00 | 0.00 | 57 | 1013.4 |
| 20260905021054 | 72 | 70 | 2.0 | 5.0 | 0.00 | 0.00 | 0.00 | 56 | 1013.4 |
| 20260905020053 | 72 | 190 | 1.0 | 3.0 | 0.00 | 0.00 | 0.00 | 56 | 1013.4 |
| 20260905015112 | 72 | 235 | 1.0 | 4.0 | 0.00 | 0.00 | 0.00 | 55 | 1013.5 |
| 20260905014052 | 72 | 191 | 1.0 | 4.0 | 0.00 | 0.00 | 0.00 | 55 | 1013.3 |
| 20260905013051 | 72 | 80 | 1.0 | 4.0 | 0.00 | 0.00 | 0.00 | 55 | 1013.4 |
| 20260905012031 | 72 | 359 | 1.0 | 1.0 | 0.00 | 0.00 | 0.00 | 54 | 1013.2 |
| 20260905011031 | 73 | 209 | 1.0 | 5.0 | 0.00 | 0.00 | 0.00 | 53 | 1013.3 |
| 20260905010031 | 73 | 199 | 4.0 | 10.0 | 0.00 | 0.00 | 0.00 | 52 | 1013.2 |
| 20260905005030 | 73 | 202 | 4.0 | 8.0 | 0.00 | 0.00 | 0.00 | 52 | 1013.1 |
| 20260905004029 | 73 | 218 | 6.0 | 10.0 | 0.00 | 0.00 | 0.00 | 52 | 1013.0 |
| 20260905003049 | 73 | 220 | 4.0 | 7.0 | 0.00 | 0.00 | 0.00 | 52 | 1013.1 |
| 20260905002029 | 73 | 213 | 5.0 | 7.0 | 0.00 | 0.00 | 0.00 | 51 | 1013.2 |
| 20260905001048 | 73 | 215 | 5.0 | 8.0 | 0.00 | 0.00 | 0.00 | 51 | 1013.3 |
| 20260905000028 | 74 | 218 | 6.0 | 10.0 | 0.00 | 0.00 | 0.00 | 51 | 1013.4 |
| 20260904235048 | 74 | 219 | 6.0 | 8.0 | 0.00 | 0.00 | 0.00 | 50 | 1013.5 |
| 20260904234028 | 74 | 215 | 6.0 | 11.0 | 0.00 | 0.00 | 0.00 | 50 | 1013.5 |
| 20260904233027 | 74 | 225 | 6.0 | 11.0 | 0.00 | 0.00 | 0.00 | 49 | 1013.7 |
| 20260904232056 | 75 | 222 | 6.0 | 11.0 | 0.00 | 0.00 | 0.00 | 49 | 1013.7 |